Flag for U.S.A. Weather past 2 weeks in Naples, Florida, U.S.A.

Now
85 °F

Passing clouds.


Feels Like: 93 °F
Forecast: 77 / 87 °F
Wind: 9 mph from West

Location: Naples Municipal

Current Time: Oct 1, 2014 at 8:03:43 PM

Latest Report: Oct 1, 2014 at 6:53 PM


Visibility: 10 mi

Pressure: 29.91 "Hg

Humidity: 72%

Dew point: 75 °F

Location of NaplesLocation

Historic Weather in Naples — Graph

°F

Naples temperature yesterday

Maximum temperature yesterday: 88 °F (at 11:53 AM)
Minimum temperature yesterday: 77 °F (at 2:53 AM)
Average temperature yesterday: 83 °F

Past Weeks' High & Low Weather Summary

 TemperatureHumidityPressure
High91 °F (Sep 25, 2:53 PM)97% (Sep 18, 12:00 AM)30.06 "Hg (Sep 18, 12:00 AM)
Low72 °F (Sep 23, 11:53 AM)53% (Sep 23, 5:53 PM)29.82 "Hg (Sep 30, 4:53 PM)
Average80 °F83%29.94 "Hg
* Reported Sep 16 6:53 PM — Oct 1 6:53 PM, Naples, Weather by CustomWeather, © 2014

Note: Actual official high and low records may vary slightly from our data, if they occured in-between our weather recording intervals... More about our weather records

Advertising

Naples weather history for previous 24 hours

 ConditionsComfort  
Time TempWeatherWind HumidityBarometerVisibility
6:53 PM
Oct 1
85 °FPassing clouds.9 mph72%29.91 "Hg10 mi
5:53 PM86 °FPassing clouds.10 mph72%29.90 "Hg10 mi
4:53 PM88 °FScattered clouds.12 mph67%29.90 "Hg10 mi
3:53 PM88 °FSunny.13 mph67%29.91 "Hg10 mi
2:53 PM89 °FPassing clouds.12 mph68%29.91 "Hg10 mi
2:00 PM88 °FPassing clouds.13 mph67%29.92 "Hg10 mi
12:53 PM88 °FScattered clouds.12 mph70%29.94 "Hg10 mi
11:53 AM87 °FPassing clouds.10 mph72%29.95 "Hg10 mi
10:53 AM87 °FPassing clouds.13 mph72%29.95 "Hg10 mi
9:53 AM81 °FPassing clouds.No wind85%29.94 "Hg10 mi
8:53 AM80 °FScattered clouds.No wind87%29.93 "Hg10 mi
7:53 AM83 °FPassing clouds.8 mph79%29.90 "Hg10 mi
6:53 AM83 °FPassing clouds.9 mph82%29.89 "Hg10 mi
5:53 AM83 °FPassing clouds.8 mph79%29.87 "Hg10 mi
4:53 AM82 °FPassing clouds.5 mph79%29.85 "Hg10 mi
3:53 AM82 °FPassing clouds.7 mph82%29.85 "Hg10 mi
2:53 AM83 °FClear.7 mph77%29.85 "Hg10 mi
1:53 AM83 °FClear.7 mph77%29.86 "Hg10 mi
12:53 AM83 °FClear.7 mph77%29.87 "Hg10 mi
11:53 PM
Sep 30
82 °FClear.3 mph82%29.88 "Hg10 mi
10:53 PM83 °FPassing clouds.6 mph79%29.88 "Hg10 mi
10:01 PM83 °FPassing clouds.6 mph79%29.87 "Hg10 mi
8:53 PM84 °FPassing clouds.5 mph77%29.86 "Hg10 mi
Weather by CustomWeather, © 2014

See weather overviewHow to use our weather pages